QPF
0.00 0.00 0.00 0.00 0.00 0.00 0.00 0.00 0.00 0.00 0.00 0.01 0.00 0.00 0.00 0.00 0.00 0.00 0.00 0.00 0.00 0.00 0.00 0.00 0.00 0.00 0.00 0.00 0.00 0.00 0.00 0.00 0.00 0.00 0.00 0.00 0.00 0.00 0.00 0.00 0.00 0.00 0.00 0.00
0.00 0.00 0.00 0.00 0.00 0.00 0.00 0.00 0.01 0.00 0.00 0.00 0.00 0.00 0.00 0.00 0.00 0.00 0.00 0.00 0.00 0.00 0.00 0.00 0.00 0.00 0.00 0.00 0.00 0.00 0.00 0.00 0.00 0.00 0.00 0.00 0.00 0.00 0.00 0.00 0.00 0.00 0.00 0.00
0.00 0.00 0.00 0.00 0.00 0.00 0.00 0.01 0.01 0.00 0.00 0.00 0.00 0.00 0.00 0.00 0.00 0.00 0.00 0.00 0.00 0.00 0.00 0.00 0.00 0.00 0.00 0.00 0.00 0.00 0.00 0.00 0.00 0.00 0.00 0.00 0.00 0.00 0.00 0.00 0.00 0.00 0.00 0.00
0.00 0.00 0.00 0.00 0.00 0.00 0.01 0.01 0.00 0.00 0.00 0.00 0.00 0.00 0.00 0.00 0.00 0.00 0.00 0.00 0.00 0.00 0.00 0.00 0.00 0.00 0.00 0.00 0.00 0.00 0.00 0.00 0.00 0.00 0.00 0.00 0.00 0.00 0.00 0.00 0.00 0.00 0.00 0.00
0.00 0.00 0.00 0.00 0.00 0.01 0.01 0.00 0.00 0.00 0.00 0.00 0.00 0.00 0.00 0.00 0.00 0.00 0.00 0.00 0.00 0.00 0.00 0.00 0.00 0.00 0.00 0.00 0.00 0.00 0.00 0.00 0.00 0.00 0.00 0.00 0.00 0.00 0.00 0.00 0.00 0.00 0.00 0.00
0.00 0.00 0.00 0.00 0.00 0.00 0.01 0.00 0.00 0.00 0.00 0.00 0.00 0.00 0.00 0.00 0.00 0.00 0.00 0.00 0.00 0.00 0.00 0.00 0.00 0.00 0.00 0.00 0.00 0.00 0.00 0.00 0.00 0.00 0.00 0.00 0.00 0.00 0.00 0.00 0.00 0.00 0.00 0.00
0.00 0.00 0.00 0.00 0.00 0.00 0.00 0.00 0.00 0.00 0.00 0.00 0.00 0.00 0.00 0.00 0.00 0.00 0.00 0.00 0.00 0.00 0.00 0.00 0.00 0.00 0.00 0.00 0.00 0.00 0.00 0.00 0.00 0.00 0.00 0.00 0.00 0.00 0.00 0.00 0.00 0.00 0.00 0.00
0.00 0.00 0.00 0.00 0.00 0.00 0.00 0.01 0.00 0.00 0.00 0.00 0.00 0.00 0.00 0.00 0.00 0.00 0.00 0.00 0.00 0.00 0.00 0.00 0.00 0.00 0.00 0.00 0.00 0.00 0.00 0.00 0.00 0.00 0.00 0.00 0.00 0.00 0.00 0.00 0.00 0.00 0.00 0.00
0.00 0.00 0.00 0.00 0.00 0.01 0.01 0.00 0.00 0.01 0.00 0.00 0.00 0.00 0.00 0.00 0.00 0.00 0.00 0.00 0.00 0.00 0.00 0.00 0.00 0.00 0.00 0.00 0.00 0.00 0.00 0.00 0.00 0.00 0.00 0.00 0.00 0.00 0.00 0.00 0.00 0.00 0.00 0.00
0.00 0.00 0.00 0.00 0.00 0.00 0.00 0.00 0.01 0.00 0.00 0.00 0.00 0.00 0.00 0.00 0.00 0.00 0.00 0.00 0.00 0.00 0.00 0.00 0.00 0.00 0.00 0.00 0.00 0.00 0.00 0.00 0.00 0.00 0.00 0.00 0.00 0.00 0.00 0.00 0.00 0.00 0.00 0.00
0.00 0.00 0.00 0.00 0.00 0.00 0.00 0.00 0.01 0.01 0.00 0.00 0.00 0.00 0.00 0.00 0.00 0.00 0.00 0.00 0.00 0.00 0.00 0.00 0.00 0.00 0.00 0.00 0.00 0.00 0.00 0.00 0.00 0.00 0.00 0.00 0.00 0.00 0.00 0.00 0.00 0.00 0.00 0.00
0.00 0.00 0.00 0.00 0.00 0.00 0.00 0.00 0.00 0.00 0.00 0.00 0.00 0.00 0.00 0.00 0.00 0.00 0.00 0.00 0.00 0.00 0.00 0.00 0.00 0.00 0.00 0.00 0.00 0.00 0.00 0.00 0.00 0.00 0.00 0.00 0.00 0.00 0.00 0.00 0.00 0.00 0.00 0.00
0.00 0.00 0.00 0.00 0.00 0.00 0.00 0.00 0.00 0.00 0.00 0.00 0.00 0.00 0.00 0.00 0.00 0.00 0.00 0.00 0.00 0.00 0.00 0.00 0.00 0.00 0.00 0.00 0.00 0.00 0.00 0.00 0.00 0.00 0.00 0.00 0.00 0.00 0.00 0.00 0.00 0.00 0.00 0.00
0.00 0.00 0.00 0.00 0.00 0.00 0.00 0.00 0.00 0.00 0.00 0.00 0.00 0.00 0.00 0.00 0.00 0.00 0.00 0.00 0.00 0.00 0.00 0.00 0.00 0.00 0.00 0.00 0.00 0.00 0.00 0.00 0.00 0.00 0.00 0.00 0.00 0.00 0.00 0.00 0.00 0.00 0.00 0.00
0.00 0.00 0.00 0.00 0.00 0.00 0.00 0.00 0.00 0.00 0.00 0.00 0.00 0.00 0.00 0.00 0.00 0.00 0.00 0.00 0.00 0.00 0.00 0.00 0.00 0.00 0.00 0.00 0.00 0.00 0.00 0.00 0.00 0.00 0.00 0.00 0.00 0.00 0.00 0.00 0.00 0.00 0.00 0.00
0.00 0.00 0.00 0.00 0.00 0.00 0.00 0.00 0.00 0.00 0.00 0.00 0.00 0.00 0.00 0.00 0.00 0.00 0.00 0.00 0.00 0.00 0.00 0.00 0.00 0.00 0.00 0.00 0.00 0.00 0.00 0.00 0.00 0.00 0.00 0.00 0.00 0.00 0.00 0.00 0.00 0.00 0.00 0.00
0.00 0.00 0.00 0.00 0.00 0.00 0.00 0.00 0.00 0.00 0.00 0.00 0.00 0.00 0.00 0.00 0.00 0.00 0.00 0.00 0.00 0.00 0.00 0.00 0.00 0.00 0.00 0.00 0.00 0.00 0.00 0.00 0.00 0.00 0.00 0.00 0.00 0.00 0.00 0.00 0.00 0.00 0.00 0.00
0.00 0.00 0.00 0.00 0.00 0.00 0.00 0.00 0.00 0.00 0.00 0.00 0.00 0.00 0.00 0.00 0.00 0.00 0.00 0.00 0.00 0.00 0.00 0.00 0.00 0.00 0.00 0.00 0.00 0.00 0.00 0.00 0.00 0.00 0.00 0.00 0.00 0.00 0.00 0.00 0.00 0.00 0.00 0.00
0.00 0.00 0.00 0.00 0.00 0.00 0.00 0.00 0.00 0.00 0.00 0.00 0.00 0.00 0.00 0.00 0.00 0.00 0.00 0.00 0.00 0.00 0.00 0.00 0.00 0.00 0.00 0.00 0.00 0.00 0.00 0.00 0.00 0.00 0.00 0.00 0.00 0.00 0.00 0.00 0.00 0.00 0.00 0.00
0.00 0.00 0.00 0.00 0.00 0.00 0.00 0.00 0.00 0.00 0.00 0.00 0.00 0.00 0.00 0.00 0.00 0.00 0.00 0.00 0.00 0.00 0.00 0.00 0.00 0.00 0.00 0.00 0.00 0.00 0.00 0.00 0.00 0.00 0.00 0.00 0.00 0.00 0.00 0.00 0.00 0.00 0.00 0.00
0.00 0.00 0.00 0.00 0.00 0.00 0.00 0.00 0.00 0.00 0.00 0.00 0.00 0.00 0.00 0.00 0.00 0.00 0.00 0.00 0.00 0.00 0.00 0.00 0.00 0.00 0.00 0.00 0.00 0.00 0.00 0.00 0.00 0.00 0.00 0.00 0.00 0.00 0.00 0.00 0.00 0.00 0.00 0.00
0.00 0.00 0.00 0.00 0.00 0.00 0.00 0.00 0.00 0.00 0.00 0.00 0.00 0.00 0.00 0.00 0.00 0.00 0.00 0.00 0.00 0.00 0.00 0.00 0.00 0.00 0.00 0.00 0.00 0.00 0.00 0.00 0.00 0.00 0.00 0.00 0.00 0.00 0.00 0.00 0.00 0.00 0.00 0.00
0.00 0.00 0.00 0.00 0.00 0.00 0.00 0.00 0.00 0.00 0.00 0.00 0.00 0.00 0.00 0.00 0.00 0.00 0.00 0.00 0.00 0.00 0.00 0.00 0.00 0.00 0.00 0.00 0.00 0.00 0.00 0.00 0.00 0.00 0.00 0.00 0.00 0.00 0.00 0.00 0.00 0.00 0.00 0.00
0.00 0.00 0.00 0.00 0.00 0.00 0.00 0.00 0.00 0.00 0.00 0.00 0.00 0.00 0.00 0.00 0.00 0.00 0.00 0.00 0.00 0.00 0.00 0.00 0.00 0.00 0.00 0.00 0.00 0.00 0.00 0.00 0.00 0.00 0.00 0.00 0.00 0.00 0.00 0.00 0.00 0.00 0.00 0.00
0.00 0.00 0.00 0.00 0.00 0.00 0.00 0.00 0.00 0.00 0.00 0.00 0.00 0.00 0.00 0.00 0.00 0.00 0.00 0.00 0.00 0.00 0.00 0.00 0.00 0.00 0.00 0.00 0.00 0.00 0.00 0.00 0.00 0.00 0.00 0.00 0.00 0.00 0.00 0.00 0.00 0.00 0.00 0.00
0.00 0.00 0.00 0.00 0.00 0.00 0.00 0.00 0.00 0.00 0.00 0.00 0.00 0.00 0.00 0.00 0.00 0.00 0.00 0.00 0.00 0.00 0.00 0.00 0.00 0.00 0.00 0.00 0.00 0.00 0.00 0.00 0.00 0.00 0.00 0.00 0.00 0.00 0.00 0.00 0.00 0.00 0.00 0.00
MSLP
1019.14 1019.56 1019.69 1019.38 1019.31 1018.96 1018.47 1017.73 1016.91 1015.96 1015.66 1014.61 1013.56 1012.24 1010.99 1010.17 1009.42 1008.82 1008.42 1008.29 1008.00 1008.26 1008.32 1008.26 1008.30 1008.44 1008.55 1008.70 1008.68 1008.69 1008.76 1008.69 1008.69 1008.82 1008.76 1008.61 1008.23 1007.77 1007.35 1007.08 1006.79 1006.39 1006.28 1006.24
1019.86 1019.34 1018.92 1019.07 1018.88 1018.54 1018.19 1017.45 1016.63 1015.87 1015.32 1014.69 1013.32 1012.08 1010.90 1009.32 1008.98 1008.50 1008.38 1008.57 1008.66 1008.73 1008.76 1008.75 1008.79 1008.87 1008.96 1009.01 1008.91 1008.83 1008.79 1008.69 1008.68 1008.68 1008.55 1008.42 1008.08 1007.49 1007.13 1006.67 1006.23 1005.97 1005.62 1005.50
1020.28 1018.92 1018.77 1018.78 1018.65 1018.19 1017.95 1017.42 1016.64 1016.44 1015.43 1014.75 1013.74 1012.34 1010.78 1008.84 1008.89 1007.82 1007.54 1008.38 1008.84 1009.16 1009.28 1009.28 1009.30 1009.34 1009.30 1009.31 1009.10 1008.88 1008.73 1008.54 1008.39 1008.30 1008.09 1007.77 1007.48 1007.06 1006.65 1006.24 1005.77 1005.40 1005.07 1004.88
1019.68 1018.84 1018.90 1018.79 1018.72 1018.37 1017.72 1017.43 1017.21 1016.86 1016.63 1015.66 1014.52 1013.27 1011.26 1009.53 1008.77 1008.02 1008.42 1009.30 1009.73 1009.80 1009.69 1010.03 1009.95 1009.74 1009.80 1009.62 1009.35 1009.02 1008.65 1008.26 1007.98 1007.79 1007.61 1007.36 1006.95 1006.51 1006.04 1005.76 1005.30 1004.84 1004.52 1004.22
1019.84 1019.42 1019.01 1018.91 1018.52 1018.16 1017.79 1017.66 1017.81 1017.69 1017.48 1017.12 1014.14 1014.47 1012.29 1010.22 1009.48 1009.00 1009.57 1009.98 1010.18 1010.23 1010.49 1010.52 1010.46 1010.24 1010.02 1009.71 1009.36 1008.97 1008.54 1008.12 1007.71 1007.41 1007.18 1006.85 1006.34 1005.89 1005.57 1005.32 1004.95 1004.41 1004.04 1003.68
1020.01 1019.46 1019.20 1018.38 1018.20 1018.26 1018.25 1018.44 1018.41 1018.15 1018.50 1018.50 1015.63 1014.87 1012.63 1011.03 1010.48 1010.40 1010.61 1010.65 1010.88 1010.94 1010.81 1010.77 1010.66 1010.51 1010.16 1009.83 1009.38 1008.85 1008.24 1007.69 1007.27 1006.89 1006.58 1006.25 1005.82 1005.47 1005.23 1004.70 1004.25 1003.74 1003.31 1002.90
1021.14 1019.44 1018.92 1018.70 1019.04 1019.04 1019.49 1019.94 1020.22 1020.30 1020.26 1019.18 1016.44 1015.17 1013.26 1011.88 1011.32 1011.36 1011.54 1011.43 1011.16 1011.09 1011.04 1010.93 1010.88 1010.65 1010.25 1009.82 1009.36 1008.87 1008.24 1007.43 1007.03 1006.56 1006.13 1005.78 1005.26 1004.95 1004.50 1004.05 1003.66 1003.26 1002.73 1002.28
1022.48 1020.39 1020.40 1020.00 1020.16 1019.92 1019.97 1020.80 1021.44 1021.10 1021.26 1019.68 1017.18 1015.62 1013.17 1012.36 1011.69 1011.72 1011.80 1011.60 1011.44 1011.47 1011.28 1011.18 1010.94 1010.60 1010.26 1009.79 1009.19 1008.53 1007.89 1007.05 1006.54 1006.01 1005.36 1004.95 1004.46 1004.00 1003.51 1003.17 1002.77 1002.40 1001.96 1001.60
1024.58 1022.44 1021.23 1020.62 1020.09 1020.16 1020.15 1020.94 1020.63 1020.97 1020.79 1020.79 1018.37 1015.84 1013.76 1012.92 1012.63 1012.37 1012.28 1011.96 1011.82 1011.64 1011.40 1011.13 1010.80 1010.35 1009.75 1009.26 1008.77 1008.19 1007.44 1006.58 1005.84 1005.19 1004.52 1003.79 1003.42 1002.87 1002.19 1002.09 1001.86 1001.40 1001.08 1000.79
1025.68 1023.45 1021.83 1020.92 1020.38 1020.15 1020.90 1020.46 1020.81 1021.57 1021.68 1021.13 1019.24 1017.33 1015.62 1014.39 1013.72 1012.95 1012.28 1012.23 1012.03 1011.73 1011.40 1011.05 1010.53 1009.92 1009.39 1008.84 1008.16 1007.55 1006.85 1005.92 1005.06 1004.38 1003.65 1002.79 1002.22 1001.66 1001.14 1001.01 1000.49 1000.28 1000.06 999.86
1026.03 1026.00 1023.54 1023.07 1022.08 1021.91 1021.18 1021.36 1021.35 1021.49 1021.99 1021.74 1020.87 1018.08 1015.96 1015.50 1014.70 1013.86 1012.91 1012.45 1012.36 1012.14 1011.84 1011.29 1010.76 1010.05 1009.34 1008.66 1007.87 1006.89 1005.98 1005.06 1004.08 1003.24 1002.41 1001.53 1000.95 1000.42 999.99 999.52 999.11 998.87 998.79 998.59
1025.84 1025.36 1024.73 1024.02 1022.70 1022.47 1022.28 1022.19 1021.88 1022.20 1023.12 1022.70 1022.17 1017.51 1015.55 1015.13 1014.62 1014.23 1013.20 1012.69 1012.53 1012.48 1012.02 1011.38 1010.75 1009.99 1009.11 1008.29 1007.14 1006.18 1005.02 1003.94 1002.97 1002.00 1000.90 999.95 999.49 999.05 998.51 997.85 997.56 997.62 997.36 997.20
1025.43 1025.44 1025.39 1024.59 1024.23 1023.66 1023.67 1022.87 1022.76 1023.06 1023.36 1022.73 1022.27 1018.30 1015.38 1015.10 1014.18 1013.54 1013.38 1013.00 1012.98 1012.77 1012.03 1011.40 1010.66 1009.73 1008.72 1007.56 1006.56 1005.47 1003.96 1002.71 1001.61 1000.57 999.46 998.26 997.53 997.23 996.61 996.03 996.02 996.23 996.09 995.98
1025.04 1025.97 1027.16 1027.37 1026.45 1026.22 1025.54 1023.76 1023.46 1023.67 1023.48 1022.32 1020.73 1018.37 1016.48 1015.19 1014.47 1013.66 1013.43 1013.46 1013.50 1013.16 1012.39 1011.71 1010.75 1009.73 1008.39 1007.12 1006.18 1004.75 1003.10 1001.77 1000.25 998.97 997.76 996.45 995.57 994.98 994.55 994.55 994.69 994.76 994.64 994.57
1025.53 1026.18 1026.77 1026.55 1026.18 1026.01 1025.30 1024.37 1023.13 1023.35 1022.09 1021.97 1019.35 1018.50 1016.66 1015.55 1014.75 1014.28 1014.25 1014.26 1014.15 1013.49 1012.77 1011.85 1010.97 1009.68 1008.19 1006.84 1005.43 1003.97 1002.51 1000.74 999.22 997.56 995.87 994.23 993.04 992.44 992.38 992.47 992.78 993.05 993.24 993.18
1025.57 1025.95 1026.40 1026.53 1025.23 1025.20 1025.15 1023.51 1022.68 1022.02 1021.40 1020.53 1019.36 1018.04 1016.43 1015.47 1014.81 1014.70 1014.87 1015.15 1015.09 1014.19 1013.39 1012.29 1011.07 1009.67 1008.07 1006.81 1005.34 1003.59 1001.86 1000.07 998.35 996.35 994.16 991.93 989.83 989.26 989.68 990.35 991.02 991.58 991.44 991.84
1025.72 1025.89 1026.83 1026.56 1025.35 1024.75 1024.24 1022.28 1021.77 1021.33 1020.73 1020.04 1019.34 1018.01 1016.78 1015.70 1015.12 1015.13 1015.46 1016.10 1015.86 1014.78 1013.73 1012.66 1011.33 1009.94 1008.45 1007.03 1005.73 1003.75 1001.54 999.75 997.86 995.61 993.10 990.45 987.79 986.29 987.47 988.31 989.16 989.69 990.20 990.66
1025.02 1025.87 1026.55 1026.42 1025.30 1024.39 1021.98 1021.05 1020.87 1020.81 1020.06 1019.84 1019.25 1018.21 1017.48 1016.63 1015.53 1015.32 1015.78 1016.21 1015.76 1015.12 1013.89 1012.76 1011.47 1010.03 1008.61 1007.16 1005.60 1003.84 1001.62 999.60 997.67 995.59 992.94 990.34 988.16 986.57 986.77 987.44 988.12 988.84 989.37 989.73
1024.57 1025.26 1025.99 1026.45 1025.90 1023.06 1021.01 1020.37 1020.19 1020.14 1019.68 1019.02 1018.96 1018.03 1017.16 1016.08 1015.39 1015.29 1015.77 1015.88 1015.87 1015.12 1013.97 1013.00 1011.51 1010.55 1008.94 1007.63 1006.00 1004.11 1001.93 1000.13 998.09 995.98 993.82 991.61 989.66 988.11 987.49 987.61 987.80 988.07 988.66 989.28
1024.33 1024.43 1025.18 1025.38 1024.71 1022.81 1020.68 1019.11 1018.86 1019.59 1019.30 1018.91 1018.63 1018.30 1017.66 1016.35 1015.58 1015.14 1015.31 1015.39 1015.35 1014.69 1013.63 1012.62 1011.22 1010.45 1009.38 1008.18 1006.70 1004.93 1002.88 1001.05 999.39 997.44 995.73 993.68 991.54 989.88 989.07 988.79 988.69 988.66 988.81 989.55
1025.06 1024.26 1024.36 1023.71 1023.07 1020.87 1019.04 1018.07 1018.24 1018.97 1019.13 1018.27 1018.44 1017.92 1017.30 1016.92 1016.03 1014.77 1014.63 1014.99 1014.88 1014.36 1013.49 1012.81 1011.52 1010.79 1010.05 1009.07 1007.87 1006.43 1004.42 1002.54 1000.97 999.00 997.09 995.12 993.58 992.22 991.41 990.52 990.41 990.42 990.50 990.78
1024.32 1023.98 1023.30 1022.45 1021.78 1020.07 1017.88 1017.58 1017.94 1017.96 1017.66 1017.89 1017.71 1017.07 1016.80 1015.81 1014.87 1014.35 1014.12 1014.27 1014.13 1013.90 1013.19 1013.00 1012.14 1010.87 1010.26 1009.83 1008.97 1008.13 1006.43 1004.93 1002.56 1000.54 998.97 997.31 995.74 994.54 993.58 992.94 992.92 992.73 992.61 992.27
1022.40 1021.54 1021.37 1020.84 1019.06 1017.46 1017.06 1016.98 1016.66 1016.93 1017.24 1016.93 1016.69 1016.30 1015.87 1015.20 1014.49 1013.65 1013.49 1013.46 1013.43 1013.36 1013.13 1013.12 1012.84 1012.08 1010.74 1010.51 1010.01 1009.58 1008.74 1006.70 1004.50 1003.00 1001.64 1000.03 998.18 996.70 995.72 994.68 994.37 994.08 994.67 994.43
1020.25 1019.38 1019.47 1019.06 1017.35 1016.72 1016.25 1016.13 1016.24 1016.56 1016.59 1016.30 1016.32 1016.11 1015.56 1015.04 1014.30 1013.54 1013.05 1012.90 1012.97 1013.19 1013.26 1013.28 1013.21 1012.52 1012.22 1011.26 1010.70 1010.70 1010.07 1008.66 1007.01 1005.34 1004.07 1002.79 1001.24 999.87 998.61 997.91 997.26 996.75 996.02 995.40
1018.79 1018.21 1017.75 1017.24 1016.41 1015.91 1015.26 1015.66 1016.05 1016.07 1016.31 1016.31 1016.19 1016.07 1015.59 1015.06 1014.42 1013.81 1013.07 1012.69 1012.80 1013.04 1013.44 1013.79 1013.78 1013.64 1013.13 1012.66 1011.91 1010.72 1010.32 1009.62 1008.63 1007.54 1006.20 1005.15 1003.93 1002.90 1001.86 1001.04 1000.12 998.99 998.05 997.03
1017.21 1016.63 1016.85 1015.91 1015.47 1015.59 1015.37 1015.45 1016.07 1016.31 1016.54 1016.66 1016.35 1015.76 1015.79 1015.47 1014.94 1014.36 1013.56 1012.80 1012.79 1013.11 1013.61 1014.06 1014.60 1014.37 1013.90 1013.56 1013.35 1012.23 1010.93 1010.34 1009.76 1008.91 1008.03 1007.18 1006.34 1005.53 1004.58 1003.22 1002.52 1002.29 1001.44 1000.19
Thickness
5431 5408 5392 5386 5370 5360 5341 5329 5315 5321 5318 5314 5313 5318 5330 5335 5341 5344 5353 5356 5356 5346 5351 5350 5349 5348 5347 5348 5351 5354 5356 5362 5369 5377 5386 5400 5419 5439 5457 5474 5492 5509 5523 5536
5401 5393 5393 5380 5366 5353 5335 5316 5307 5309 5313 5306 5307 5307 5321 5335 5334 5336 5335 5335 5332 5333 5334 5336 5334 5331 5328 5328 5332 5337 5340 5344 5347 5353 5364 5376 5392 5413 5432 5453 5473 5491 5508 5522
5374 5387 5385 5366 5345 5337 5325 5305 5295 5287 5296 5300 5294 5293 5313 5334 5327 5337 5342 5330 5326 5323 5321 5321 5321 5317 5316 5316 5319 5324 5327 5330 5333 5336 5345 5357 5372 5389 5409 5431 5451 5471 5489 5504
5373 5378 5363 5341 5321 5312 5301 5306 5294 5288 5273 5263 5289 5267 5302 5321 5325 5330 5326 5318 5313 5314 5312 5309 5309 5308 5304 5305 5307 5310 5315 5319 5322 5324 5329 5336 5351 5369 5391 5408 5429 5451 5470 5489
5363 5355 5346 5324 5316 5312 5289 5290 5282 5278 5267 5248 5292 5265 5280 5321 5326 5332 5313 5308 5304 5302 5301 5297 5294 5295 5293 5294 5296 5299 5303 5307 5310 5313 5316 5322 5334 5352 5368 5385 5406 5429 5451 5471
5356 5351 5325 5314 5315 5300 5289 5266 5269 5252 5215 5195 5268 5283 5287 5312 5316 5309 5297 5293 5295 5292 5290 5287 5284 5283 5282 5283 5285 5289 5294 5298 5301 5304 5307 5312 5321 5332 5344 5365 5386 5410 5433 5456
5344 5334 5330 5313 5276 5260 5233 5221 5218 5186 5177 5193 5286 5267 5284 5299 5295 5293 5282 5286 5287 5285 5279 5277 5273 5271 5271 5272 5273 5275 5280 5286 5288 5291 5295 5302 5310 5316 5330 5347 5365 5388 5414 5438
5296 5291 5300 5296 5273 5250 5233 5224 5214 5236 5224 5248 5280 5205 5301 5287 5293 5289 5283 5280 5280 5271 5270 5266 5264 5262 5261 5260 5261 5264 5266 5272 5274 5279 5284 5290 5299 5308 5319 5332 5350 5369 5394 5419
5266 5266 5292 5278 5271 5251 5225 5199 5236 5237 5158 5183 5228 5271 5303 5292 5280 5275 5271 5276 5264 5264 5262 5258 5257 5255 5254 5252 5251 5251 5253 5257 5262 5267 5275 5283 5289 5300 5314 5321 5333 5353 5376 5400
5237 5252 5281 5272 5258 5245 5240 5253 5232 5192 5223 5163 5208 5244 5246 5267 5253 5278 5270 5266 5261 5257 5255 5254 5251 5250 5247 5245 5244 5245 5245 5248 5250 5253 5262 5274 5280 5291 5303 5309 5325 5341 5361 5383
5208 5210 5244 5233 5207 5208 5213 5193 5224 5220 5215 5212 5167 5219 5240 5221 5227 5244 5251 5263 5250 5241 5239 5242 5239 5238 5236 5235 5235 5237 5238 5239 5243 5248 5255 5264 5272 5282 5291 5304 5318 5332 5350 5369
5225 5229 5211 5207 5215 5213 5209 5191 5212 5232 5195 5160 5164 5242 5225 5217 5242 5233 5254 5259 5249 5241 5235 5234 5231 5228 5230 5229 5230 5227 5229 5233 5236 5240 5248 5258 5264 5271 5283 5298 5312 5324 5339 5358
5232 5223 5221 5208 5187 5203 5175 5220 5227 5202 5168 5172 5156 5214 5243 5262 5259 5259 5255 5248 5238 5236 5232 5229 5225 5226 5227 5227 5223 5221 5226 5227 5229 5233 5239 5247 5255 5261 5277 5291 5303 5312 5329 5347
5233 5167 5180 5184 5179 5137 5160 5178 5183 5173 5191 5168 5211 5219 5244 5255 5252 5257 5256 5242 5223 5215 5228 5221 5220 5221 5224 5222 5218 5218 5219 5219 5221 5227 5231 5236 5248 5258 5272 5281 5287 5302 5321 5340
5217 5191 5146 5178 5183 5137 5179 5182 5195 5152 5211 5211 5228 5212 5240 5246 5250 5250 5236 5226 5220 5220 5223 5220 5217 5219 5221 5222 5222 5218 5215 5215 5218 5221 5229 5239 5249 5260 5268 5278 5286 5300 5315 5335
5206 5203 5160 5205 5175 5150 5157 5204 5208 5213 5212 5216 5226 5211 5227 5238 5242 5245 5232 5210 5214 5215 5216 5215 5217 5218 5223 5220 5219 5219 5215 5217 5219 5226 5237 5246 5262 5270 5272 5279 5287 5298 5319 5336
5208 5196 5169 5170 5170 5176 5215 5209 5192 5190 5177 5200 5214 5222 5217 5244 5245 5246 5226 5201 5200 5208 5214 5213 5216 5216 5220 5219 5216 5216 5219 5224 5226 5234 5246 5260 5281 5296 5284 5292 5301 5312 5323 5338
5188 5199 5176 5180 5172 5174 5229 5199 5200 5202 5193 5196 5219 5225 5214 5222 5236 5232 5201 5200 5206 5208 5217 5217 5218 5221 5223 5224 5223 5223 5225 5228 5231 5241 5251 5268 5285 5300 5303 5307 5315 5320 5329 5346
5206 5207 5179 5179 5103 5197 5241 5223 5213 5210 5221 5223 5221 5216 5213 5216 5230 5230 5209 5197 5201 5205 5214 5214 5221 5218 5225 5228 5229 5232 5238 5235 5239 5245 5253 5268 5283 5299 5309 5314 5324 5333 5345 5355
5193 5197 5203 5148 5170 5163 5205 5221 5217 5199 5195 5210 5200 5199 5190 5232 5244 5238 5216 5205 5210 5212 5217 5222 5228 5225 5227 5230 5233 5238 5244 5245 5242 5244 5252 5269 5281 5295 5308 5317 5325 5335 5347 5355
5152 5136 5191 5187 5198 5186 5223 5231 5226 5201 5208 5210 5191 5197 5204 5215 5224 5237 5229 5218 5207 5212 5220 5222 5227 5228 5227 5228 5231 5237 5246 5247 5248 5253 5261 5274 5283 5294 5299 5313 5320 5327 5337 5354
5178 5150 5151 5165 5142 5174 5227 5234 5227 5219 5212 5200 5197 5199 5206 5209 5221 5227 5225 5216 5221 5221 5224 5221 5224 5232 5230 5228 5229 5229 5238 5241 5254 5263 5269 5275 5284 5294 5302 5313 5319 5327 5338 5353
5179 5197 5193 5196 5188 5212 5208 5228 5223 5209 5209 5206 5211 5218 5220 5227 5229 5238 5237 5236 5232 5228 5225 5223 5220 5225 5234 5230 5229 5225 5226 5236 5252 5259 5265 5275 5288 5299 5302 5312 5320 5326 5330 5344
5208 5206 5209 5189 5212 5213 5204 5222 5222 5211 5216 5220 5218 5216 5219 5223 5227 5233 5237 5237 5234 5229 5224 5222 5221 5226 5226 5231 5232 5225 5225 5230 5240 5252 5258 5268 5279 5291 5303 5309 5313 5322 5334 5352
5211 5211 5208 5206 5220 5220 5224 5226 5219 5217 5207 5210 5210 5210 5213 5217 5221 5226 5234 5236 5233 5230 5223 5218 5217 5220 5222 5223 5228 5235 5234 5234 5238 5244 5253 5259 5267 5275 5286 5295 5306 5317 5330 5344
5218 5216 5194 5206 5220 5220 5226 5220 5208 5208 5205 5203 5204 5207 5208 5210 5214 5220 5226 5232 5231 5228 5221 5216 5210 5212 5216 5218 5218 5225 5236 5239 5240 5243 5246 5250 5257 5264 5272 5284 5290 5299 5310 5327